EA3ABN-1 Weather Reports


time (UTC)temp
F
wind
direction
speed
knots
gust
knots
rain 1hr
in
rain 24hr
in
rain mn
in
humidity
%
barometer
mb
20260504130455 80 0.0 0.0 0.00 0.00 0.00 35 1008.3
20260504110453 87 0.0 0.0 0.00 0.00 0.00 33 1008.1
20260504100454 87 0.0 0.0 0.00 0.00 0.00 34 1008.1
20260504081954 82 0.0 0.0 0.00 0.00 0.00 34 1009.1
20260504081453 81 0.0 0.0 0.00 0.00 0.00 35 1009.1
20260504080953 81 0.0 0.0 0.00 0.00 0.00 35 1009.2
20260504080509 81 0.0 0.0 0.00 0.00 0.00 36 1009.2
20260504050509 70 0.0 0.0 0.00 0.00 0.00 34 1010.6
20260504045954 70 0.0 0.0 0.00 0.00 0.00 34 1010.6
20260504045454 70 0.0 0.0 0.00 0.00 0.00 34 1010.7
20260504044958 70 0.0 0.0 0.00 0.00 0.00 34 1010.7
20260504044453 70 0.0 0.0 0.00 0.00 0.00 34 1010.6
20260504044010 70 0.0 0.0 0.00 0.00 0.00 34 1010.6
20260504043453 70 0.0 0.0 0.00 0.00 0.00 34 1010.6
20260504043009 70 0.0 0.0 0.00 0.00 0.00 34 1010.6
20260504042508 70 0.0 0.0 0.00 0.00 0.00 35 1010.6
20260504041953 70 0.0 0.0 0.00 0.00 0.00 34 1010.6
20260504041453 70 0.0 0.0 0.00 0.00 0.00 34 1010.5
20260504040953 70 0.0 0.0 0.00 0.00 0.00 34 1010.6
20260504040453 70 0.0 0.0 0.00 0.00 0.00 34 1010.6
20260504040008 70 0.0 0.0 0.00 0.00 0.00 34 1010.7
20260504035453 70 0.0 0.0 0.00 0.00 0.00 34 1010.6
20260504034954 70 0.0 0.0 0.00 0.00 0.00 34 1010.7
20260504034453 70 0.0 0.0 0.00 0.00 0.00 34 1010.7
20260504033953 70 0.0 0.0 0.00 0.00 0.00 34 1010.8
20260504033509 70 0.0 0.0 0.00 0.00 0.00 34 1010.6
20260504033009 70 0.0 0.0 0.00 0.00 0.00 34 1010.7
20260504032509 70 0.0 0.0 0.00 0.00 0.00 34 1010.8
20260504031953 70 0.0 0.0 0.00 0.00 0.00 34 1010.7
20260504031453 70 0.0 0.0 0.00 0.00 0.00 34 1010.9
20260504030953 70 0.0 0.0 0.00 0.00 0.00 34 1010.9
20260504030509 70 0.0 0.0 0.00 0.00 0.00 34 1010.9
20260504025953 70 0.0 0.0 0.00 0.00 0.00 34 1010.8
20260504025453 70 0.0 0.0 0.00 0.00 0.00 34 1010.9
20260504025009 70 0.0 0.0 0.00 0.00 0.00 34 1010.9
20260504024453 70 0.0 0.0 0.00 0.00 0.00 34 1010.9
20260504024009 70 0.0 0.0 0.00 0.00 0.00 34 1010.7
20260504023508 70 0.0 0.0 0.00 0.00 0.00 34 1010.7
20260504022953 70 0.0 0.0 0.00 0.00 0.00 34 1010.7
20260504022524 70 0.0 0.0 0.00 0.00 0.00 34 1010.8
20260504021953 70 0.0 0.0 0.00 0.00 0.00 34 1010.8
20260504021453 70 0.0 0.0 0.00 0.00 0.00 34 1010.9
20260504020953 70 0.0 0.0 0.00 0.00 0.00 34 1010.9
20260504020454 70 0.0 0.0 0.00 0.00 0.00 34 1011.0
20260504015953 70 0.0 0.0 0.00 0.00 0.00 34 1011.0
20260504015524 70 0.0 0.0 0.00 0.00 0.00 34 1011.0
20260504014953 70 0.0 0.0 0.00 0.00 0.00 34 1011.0
20260504014453 70 0.0 0.0 0.00 0.00 0.00 34 1011.0
20260504014024 70 0.0 0.0 0.00 0.00 0.00 34 1011.0
20260504013453 70 0.0 0.0 0.00 0.00 0.00 34 1011.1
20260504012953 70 0.0 0.0 0.00 0.00 0.00 34 1011.2
20260504012452 71 0.0 0.0 0.00 0.00 0.00 33 1011.2
20260504011953 71 0.0 0.0 0.00 0.00 0.00 33 1011.2
20260504011453 71 0.0 0.0 0.00 0.00 0.00 34 1011.2
20260504010953 71 0.0 0.0 0.00 0.00 0.00 34 1011.2
20260504010453 71 0.0 0.0 0.00 0.00 0.00 34 1011.3
20260504005952 71 0.0 0.0 0.00 0.00 0.00 34 1011.4
20260504005541 71 0.0 0.0 0.00 0.00 0.00 34 1011.3
20260504004953 71 0.0 0.0 0.00 0.00 0.00 34 1011.5
20260504004508 71 0.0 0.0 0.00 0.00 0.00 34 1011.5
20260504003953 71 0.0 0.0 0.00 0.00 0.00 33 1011.6
20260504003453 71 0.0 0.0 0.00 0.00 0.00 34 1011.6
20260504002954 71 0.0 0.0 0.00 0.00 0.00 34 1011.7
20260504002455 70 0.0 0.0 0.00 0.00 0.00 35 1011.8
20260504002009 70 0.0 0.0 0.00 0.00 0.00 35 1011.8
20260504001453 70 0.0 0.0 0.00 0.00 0.00 35 1011.8
20260504000953 70 0.0 0.0 0.00 0.00 0.00 35 1011.8
20260504000453 70 0.0 0.0 0.00 0.00 0.00 35 1011.8
20260503235953 70 0.0 0.0 0.00 0.00 0.00 35 1011.7
20260503235510 70 0.0 0.0 0.00 0.00 0.00 35 1011.7
20260503234953 70 0.0 0.0 0.00 0.00 0.00 35 1011.8
20260503234455 70 0.0 0.0 0.00 0.00 0.00 35 1011.9
20260503233953 70 0.0 0.0 0.00 0.00 0.00 35 1012.0
20260503233453 70 0.0 0.0 0.00 0.00 0.00 35 1011.9
20260503232953 70 0.0 0.0 0.00 0.00 0.00 35 1012.0
20260503232453 70 0.0 0.0 0.00 0.00 0.00 34 1012.1
20260503231953 71 0.0 0.0 0.00 0.00 0.00 34 1012.0
20260503231453 71 0.0 0.0 0.00 0.00 0.00 33 1012.0
20260503231010 71 0.0 0.0 0.00 0.00 0.00 34 1012.0
20260503230453 71 0.0 0.0 0.00 0.00 0.00 34 1012.0
20260503225953 71 0.0 0.0 0.00 0.00 0.00 34 1011.9
20260503225454 71 0.0 0.0 0.00 0.00 0.00 34 1011.9
20260503225025 71 0.0 0.0 0.00 0.00 0.00 34 1011.9
20260503224456 71 0.0 0.0 0.00 0.00 0.00 33 1012.0
20260503224009 71 0.0 0.0 0.00 0.00 0.00 34 1012.0
20260503223508 72 0.0 0.0 0.00 0.00 0.00 34 1012.0
20260503223024 72 0.0 0.0 0.00 0.00 0.00 34 1012.0
20260503222508 72 0.0 0.0 0.00 0.00 0.00 34 1011.9
20260503221953 71 0.0 0.0 0.00 0.00 0.00 34 1012.0
20260503220952 72 0.0 0.0 0.00 0.00 0.00 34 1011.9
20260503220453 72 0.0 0.0 0.00 0.00 0.00 33 1012.0
20260503220012 72 0.0 0.0 0.00 0.00 0.00 34 1012.0
20260503215453 72 0.0 0.0 0.00 0.00 0.00 33 1012.0
20260503214953 72 0.0 0.0 0.00 0.00 0.00 33 1012.1
20260503214453 72 0.0 0.0 0.00 0.00 0.00 33 1012.0
20260503213952 72 0.0 0.0 0.00 0.00 0.00 33 1012.0
20260503213508 72 0.0 0.0 0.00 0.00 0.00 33 1012.1
20260503212952 72 0.0 0.0 0.00 0.00 0.00 33 1012.1
20260503212504 72 0.0 0.0 0.00 0.00 0.00 33 1012.3
20260503211954 72 0.0 0.0 0.00 0.00 0.00 33 1012.2
20260503211453 72 0.0 0.0 0.00 0.00 0.00 33 1012.3
20260503210952 73 0.0 0.0 0.00 0.00 0.00 33 1012.3
20260503210452 73 0.0 0.0 0.00 0.00 0.00 34 1012.3
20260503205952 73 0.0 0.0 0.00 0.00 0.00 34 1012.2
20260503205453 73 0.0 0.0 0.00 0.00 0.00 34 1012.3
20260503205009 72 0.0 0.0 0.00 0.00 0.00 34 1012.2
20260503204452 72 0.0 0.0 0.00 0.00 0.00 34 1012.3
20260503203952 72 0.0 0.0 0.00 0.00 0.00 34 1012.2
20260503203453 73 0.0 0.0 0.00 0.00 0.00 34 1012.2
20260503202953 73 0.0 0.0 0.00 0.00 0.00 33 1012.3
20260503202452 73 0.0 0.0 0.00 0.00 0.00 34 1012.2
20260503201952 73 0.0 0.0 0.00 0.00 0.00 34 1012.3
20260503201455 72 0.0 0.0 0.00 0.00 0.00 34 1012.4
20260503200953 72 0.0 0.0 0.00 0.00 0.00 34 1012.3
20260503200453 72 0.0 0.0 0.00 0.00 0.00 34 1012.2
20260503195952 73 0.0 0.0 0.00 0.00 0.00 34 1012.2
20260503195452 73 0.0 0.0 0.00 0.00 0.00 34 1012.3
20260503194952 73 0.0 0.0 0.00 0.00 0.00 34 1012.2
20260503194453 73 0.0 0.0 0.00 0.00 0.00 34 1012.1
20260503193953 73 0.0 0.0 0.00 0.00 0.00 34 1012.1
20260503193452 73 0.0 0.0 0.00 0.00 0.00 34 1012.0
20260503192952 73 0.0 0.0 0.00 0.00 0.00 34 1011.9
20260503192453 73 0.0 0.0 0.00 0.00 0.00 34 1011.9
20260503192008 73 0.0 0.0 0.00 0.00 0.00 34 1011.9
20260503191452 73 0.0 0.0 0.00 0.00 0.00 34 1011.9
20260503190952 73 0.0 0.0 0.00 0.00 0.00 34 1011.8
20260503190453 73 0.0 0.0 0.00 0.00 0.00 34 1011.6
20260503185952 73 0.0 0.0 0.00 0.00 0.00 34 1011.8
20260503185452 73 0.0 0.0 0.00 0.00 0.00 34 1011.9
20260503184953 73 0.0 0.0 0.00 0.00 0.00 34 1011.9
20260503184452 73 0.0 0.0 0.00 0.00 0.00 34 1011.9
20260503183953 73 0.0 0.0 0.00 0.00 0.00 34 1011.7
20260503183508 73 0.0 0.0 0.00 0.00 0.00 34 1011.8
20260503183002 73 0.0 0.0 0.00 0.00 0.00 33 1011.8
20260503182452 74 0.0 0.0 0.00 0.00 0.00 34 1011.8
20260503181952 74 0.0 0.0 0.00 0.00 0.00 34 1011.6
20260503181452 74 0.0 0.0 0.00 0.00 0.00 34 1011.7
20260503180952 74 0.0 0.0 0.00 0.00 0.00 34 1011.7
20260503180452 74 0.0 0.0 0.00 0.00 0.00 34 1011.7
20260503175952 74 0.0 0.0 0.00 0.00 0.00 34 1011.7
20260503175452 74 0.0 0.0 0.00 0.00 0.00 34 1011.7
20260503174952 74 0.0 0.0 0.00 0.00 0.00 34 1011.6
20260503174452 74 0.0 0.0 0.00 0.00 0.00 34 1011.5
20260503173953 75 0.0 0.0 0.00 0.00 0.00 34 1011.4
20260503173452 74 0.0 0.0 0.00 0.00 0.00 34 1011.3
20260503172952 74 0.0 0.0 0.00 0.00 0.00 34 1011.3
20260503172508 74 0.0 0.0 0.00 0.00 0.00 34 1011.4
20260503172009 74 0.0 0.0 0.00 0.00 0.00 34 1011.4
20260503171453 74 0.0 0.0 0.00 0.00 0.00 34 1011.4
20260503170953 74 0.0 0.0 0.00 0.00 0.00 34 1011.5
20260503170452 74 0.0 0.0 0.00 0.00 0.00 34 1011.5
20260503150952 79 0.0 0.0 0.00 0.00 0.00 33 1010.9
20260503150452 80 0.0 0.0 0.00 0.00 0.00 33 1010.8